AXB549 VOTV-OOMS

Flight info

Callsign AXB549
Flight time N/A
Altitude 34000
Route SABKU V29 DOTAT P570 EMURU
Aircraft B738/M-SDE2E3FGHIRWXY/LB1

Departure

Time 2026-04-20 19:09
Airport Thiruvananthapuram International Airport (VOTV)

Arrival

Time N/A
Airport Muscat International Airport (OOMS)
Time Latitude Longitude Altitude Speed Heading
2026-04-20 18:33 8.48574 76.92200 42 ft 0 kts 50°
2026-04-20 18:57 8.48573 76.92198 42 ft 1 kts 50°
2026-04-20 18:57 8.48564 76.92187 41 ft 2 kts 50°
2026-04-20 18:58 8.48554 76.92175 41 ft 2 kts 50°
2026-04-20 18:58 8.48544 76.92163 41 ft 2 kts 62°
2026-04-20 18:58 8.48540 76.92149 40 ft 2 kts 83°
2026-04-20 18:58 8.48540 76.92133 40 ft 2 kts 103°
2026-04-20 18:59 8.48545 76.92120 40 ft 2 kts 122°
2026-04-20 18:59 8.48551 76.92112 40 ft 1 kts 134°
2026-04-20 18:59 8.48555 76.92107 40 ft 0 kts 136°
2026-04-20 19:01 8.48554 76.92109 40 ft 1 kts 136°
2026-04-20 19:01 8.48542 76.92120 40 ft 3 kts 135°
2026-04-20 19:01 8.48522 76.92140 40 ft 4 kts 135°
2026-04-20 19:02 8.48498 76.92165 40 ft 5 kts 135°
2026-04-20 19:02 8.48469 76.92194 40 ft 6 kts 135°
2026-04-20 19:02 8.48428 76.92233 39 ft 9 kts 135°
2026-04-20 19:02 8.48377 76.92254 39 ft 7 kts 195°
2026-04-20 19:03 8.48336 76.92219 38 ft 7 kts 224°
2026-04-20 19:03 8.48292 76.92184 36 ft 8 kts 197°
2026-04-20 19:03 8.48240 76.92196 35 ft 7 kts 141°
2026-04-20 19:03 8.48205 76.92229 35 ft 6 kts 136°
2026-04-20 19:04 8.48171 76.92261 35 ft 8 kts 135°
2026-04-20 19:04 8.48120 76.92312 35 ft 12 kts 136°
2026-04-20 19:04 8.48050 76.92378 35 ft 13 kts 136°
2026-04-20 19:04 8.47988 76.92440 36 ft 11 kts 135°
2026-04-20 19:05 8.47937 76.92490 36 ft 8 kts 136°
2026-04-20 19:05 8.47897 76.92529 37 ft 8 kts 136°
2026-04-20 19:05 8.47843 76.92582 38 ft 12 kts 136°
2026-04-20 19:05 8.47773 76.92650 38 ft 13 kts 136°
2026-04-20 19:06 8.47710 76.92675 38 ft 9 kts 206°
2026-04-20 19:06 8.47681 76.92638 37 ft 7 kts 234°
2026-04-20 19:06 8.47633 76.92590 37 ft 11 kts 199°
2026-04-20 19:06 8.47555 76.92629 37 ft 15 kts 135°
2026-04-20 19:07 8.47469 76.92715 37 ft 19 kts 135°
2026-04-20 19:07 8.47370 76.92815 37 ft 19 kts 135°
2026-04-20 19:07 8.47281 76.92906 35 ft 15 kts 129°
2026-04-20 19:07 8.47249 76.93007 33 ft 15 kts 104°
2026-04-20 19:08 8.47191 76.93076 33 ft 10 kts 159°
2026-04-20 19:08 8.47150 76.93024 34 ft 10 kts 304°
2026-04-20 19:08 8.47198 76.92977 34 ft 9 kts 315°
2026-04-20 19:09 8.47401 76.92780 37 ft 78 kts 316°
2026-04-20 19:09 8.47972 76.92223 32 ft 148 kts 316°
2026-04-20 19:09 8.48856 76.91363 124 ft 196 kts 316°
2026-04-20 19:09 8.49764 76.90404 1086 ft 186 kts 311°
2026-04-20 19:10 8.50588 76.89455 1890 ft 186 kts 313°
2026-04-20 19:10 8.51506 76.88461 2439 ft 196 kts 314°
2026-04-20 19:10 8.52480 76.87438 2848 ft 214 kts 315°
2026-04-20 19:10 8.53551 76.86336 3323 ft 229 kts 315°
2026-04-20 19:11 8.54711 76.85115 3748 ft 250 kts 314°
2026-04-20 19:11 8.55937 76.83812 4336 ft 264 kts 314°
2026-04-20 19:11 8.57238 76.82430 4910 ft 278 kts 315°
2026-04-20 19:11 8.58589 76.80991 5698 ft 284 kts 315°
2026-04-20 19:12 8.59944 76.79548 6485 ft 287 kts 315°
2026-04-20 19:12 8.61325 76.78076 7257 ft 291 kts 315°
2026-04-20 19:12 8.62726 76.76582 8028 ft 293 kts 315°
2026-04-20 19:13 8.64143 76.75072 8775 ft 297 kts 315°
2026-04-20 19:13 8.65569 76.73552 9517 ft 300 kts 315°
2026-04-20 19:13 8.67011 76.72014 10187 ft 306 kts 315°
2026-04-20 19:13 8.68512 76.70416 10596 ft 321 kts 315°
2026-04-20 19:14 8.70089 76.68736 10979 ft 336 kts 315°
2026-04-20 19:14 8.71735 76.66982 11301 ft 352 kts 315°
2026-04-20 19:14 8.73463 76.65141 11679 ft 366 kts 315°
2026-04-20 19:14 8.75233 76.63252 12324 ft 370 kts 314°
2026-04-20 19:15 8.76989 76.61378 12974 ft 373 kts 314°
2026-04-20 19:15 8.78791 76.59455 13587 ft 377 kts 314°
2026-04-20 19:15 8.80598 76.57526 14223 ft 380 kts 314°
2026-04-20 19:15 8.82423 76.55577 14845 ft 383 kts 314°
2026-04-20 19:16 8.84275 76.53600 15510 ft 384 kts 314°
2026-04-20 19:16 8.86116 76.51633 16069 ft 387 kts 314°
2026-04-20 19:16 8.87954 76.49670 16646 ft 389 kts 314°
2026-04-20 19:16 8.89838 76.47658 17233 ft 391 kts 314°
2026-04-20 19:17 8.91735 76.45630 17756 ft 395 kts 314°
2026-04-20 19:17 8.93614 76.43623 18317 ft 397 kts 313°
2026-04-20 19:17 8.95522 76.41583 18836 ft 399 kts 313°
2026-04-20 19:17 8.97446 76.39527 19364 ft 401 kts 313°
2026-04-20 19:18 8.99371 76.37472 19863 ft 404 kts 313°
2026-04-20 19:18 9.01326 76.35385 20370 ft 406 kts 313°
2026-04-20 19:18 9.03267 76.33300 20827 ft 409 kts 311°
2026-04-20 19:18 9.05068 76.31058 21316 ft 410 kts 305°
2026-04-20 19:19 9.06706 76.28692 21785 ft 411 kts 303°
2026-04-20 19:19 9.08299 76.26266 22234 ft 413 kts 302°
2026-04-20 19:19 9.09884 76.23817 22645 ft 417 kts 302°
2026-04-20 19:19 9.11475 76.21351 23086 ft 419 kts 301°
2026-04-20 19:20 9.13056 76.18895 23488 ft 421 kts 301°
2026-04-20 19:20 9.14659 76.16400 23880 ft 424 kts 301°
2026-04-20 19:20 9.16287 76.13868 24248 ft 427 kts 301°
2026-04-20 19:20 9.17894 76.11363 24652 ft 429 kts 301°
2026-04-20 19:21 9.19537 76.08803 25016 ft 432 kts 301°
2026-04-20 19:21 9.21176 76.06248 25425 ft 434 kts 301°
2026-04-20 19:21 9.22815 76.03691 25789 ft 436 kts 301°
2026-04-20 19:21 9.24474 76.01102 26148 ft 438 kts 300°
2026-04-20 19:22 9.26129 75.98519 26504 ft 441 kts 300°
2026-04-20 19:22 9.27812 75.95892 26831 ft 443 kts 300°
2026-04-20 19:22 9.29478 75.93291 27139 ft 446 kts 300°
2026-04-20 19:22 9.31166 75.90655 27526 ft 447 kts 300°
2026-04-20 19:23 9.32881 75.87977 27822 ft 450 kts 300°
2026-04-20 19:23 9.34572 75.85333 28143 ft 452 kts 300°
2026-04-20 19:23 9.36301 75.82632 28458 ft 455 kts 300°
2026-04-20 19:23 9.38025 75.79938 28747 ft 457 kts 300°
2026-04-20 19:24 9.39761 75.77222 29038 ft 460 kts 300°
2026-04-20 19:24 9.41516 75.74478 29492 ft 459 kts 300°
2026-04-20 19:24 9.43240 75.71783 29993 ft 456 kts 300°
2026-04-20 19:24 9.44972 75.69076 30406 ft 456 kts 300°
2026-04-20 19:25 9.46687 75.66390 30738 ft 457 kts 300°
2026-04-20 19:25 9.48402 75.63705 31104 ft 457 kts 299°
2026-04-20 19:25 9.50135 75.60993 31542 ft 455 kts 300°
2026-04-20 19:25 9.51845 75.58316 31960 ft 453 kts 299°
2026-04-20 19:26 9.53542 75.55656 32297 ft 453 kts 299°
2026-04-20 19:26 9.55262 75.52962 32626 ft 453 kts 299°
2026-04-20 19:26 9.56990 75.50252 32975 ft 453 kts 299°
2026-04-20 19:26 9.58692 75.47585 33352 ft 453 kts 299°
2026-04-20 19:27 9.60407 75.44896 33756 ft 451 kts 299°
2026-04-20 19:27 9.62104 75.42234 33869 ft 454 kts 299°
2026-04-20 19:27 9.63819 75.39542 33870 ft 455 kts 299°
2026-04-20 19:28 9.67256 75.34152 33871 ft 450 kts 298°
2026-04-20 19:28 9.70685 75.28769 33871 ft 450 kts 298°
2026-04-20 19:29 9.74083 75.23431 33870 ft 451 kts 298°
2026-04-20 19:29 9.77468 75.18112 33867 ft 449 kts 298°
2026-04-20 19:30 9.80855 75.12787 33864 ft 450 kts 298°
2026-04-20 19:30 9.84258 75.07436 33868 ft 449 kts 298°
2026-04-20 19:31 9.87649 75.02103 33865 ft 449 kts 298°
2026-04-20 19:31 9.91026 74.96785 33866 ft 449 kts 298°
2026-04-20 19:32 9.94410 74.91457 33867 ft 448 kts 298°
2026-04-20 19:32 9.97803 74.86111 33863 ft 449 kts 298°
2026-04-20 19:33 10.01167 74.80808 33863 ft 447 kts 298°
2026-04-20 19:33 10.04540 74.75487 33864 ft 449 kts 298°
2026-04-20 19:34 10.07915 74.70161 33863 ft 448 kts 298°
2026-04-20 19:34 10.11289 74.64837 33863 ft 446 kts 298°
2026-04-20 19:35 10.14672 74.59493 33864 ft 448 kts 298°
2026-04-20 19:35 10.18033 74.54183 33864 ft 447 kts 298°
2026-04-20 19:36 10.21385 74.48885 33863 ft 447 kts 298°
2026-04-20 19:36 10.24763 74.43544 33864 ft 447 kts 298°
2026-04-20 19:37 10.28118 74.38236 33863 ft 446 kts 297°
2026-04-20 19:37 10.31461 74.32944 33863 ft 446 kts 297°
2026-04-20 19:38 10.34816 74.27632 33863 ft 446 kts 297°
2026-04-20 19:38 10.38164 74.22329 33864 ft 445 kts 297°
2026-04-20 19:39 10.41550 74.17052 33863 ft 447 kts 300°
2026-04-20 19:39 10.45176 74.11919 33864 ft 448 kts 301°
2026-04-20 19:40 10.48831 74.06812 33864 ft 448 kts 301°
2026-04-20 19:40 10.52484 74.01673 33864 ft 447 kts 300°
2026-04-20 19:41 10.56115 73.96545 33864 ft 448 kts 300°
2026-04-20 19:41 10.59746 73.91405 33863 ft 446 kts 300°
2026-04-20 19:42 10.63361 73.86282 33864 ft 447 kts 300°
2026-04-20 19:42 10.66990 73.81131 33865 ft 447 kts 300°
2026-04-20 19:43 10.70007 73.76848 33865 ft 447 kts 300°
2026-04-20 19:43 10.74210 73.70878 33864 ft 447 kts 300°
2026-04-20 19:44 10.77830 73.65732 33864 ft 446 kts 300°
2026-04-20 19:44 10.81442 73.60596 33864 ft 446 kts 300°
2026-04-20 19:45 10.85043 73.55472 33863 ft 447 kts 300°
2026-04-20 19:45 10.88646 73.50343 33864 ft 445 kts 300°
2026-04-20 19:46 10.92264 73.45192 33865 ft 446 kts 300°
2026-04-20 19:46 10.95855 73.40072 33863 ft 446 kts 300°
2026-04-20 19:47 10.99451 73.34948 33864 ft 446 kts 299°
2026-04-20 19:47 11.03064 73.29795 33866 ft 445 kts 299°
2026-04-20 19:48 11.06665 73.24658 33863 ft 445 kts 299°
2026-04-20 19:48 11.10279 73.19497 33864 ft 445 kts 299°
2026-04-20 19:49 11.13874 73.14362 33865 ft 445 kts 299°
2026-04-20 19:49 11.17487 73.09196 33864 ft 446 kts 299°
2026-04-20 19:50 11.21059 73.04093 33867 ft 444 kts 299°
2026-04-20 19:50 11.24648 72.98960 33865 ft 443 kts 299°
2026-04-20 19:51 11.28212 72.93856 33864 ft 444 kts 299°
2026-04-20 19:51 11.31795 72.88728 33862 ft 444 kts 299°
2026-04-20 19:52 11.35370 72.83605 33862 ft 444 kts 299°
2026-04-20 19:52 11.38950 72.78475 33865 ft 444 kts 299°
2026-04-20 19:53 11.42526 72.73348 33861 ft 444 kts 299°
2026-04-20 19:53 11.46105 72.68214 33864 ft 444 kts 299°
2026-04-20 19:54 11.49683 72.63079 33866 ft 444 kts 298°
2026-04-20 19:54 11.53258 72.57945 33865 ft 443 kts 299°
2026-04-20 19:55 11.56817 72.52830 33863 ft 443 kts 299°
2026-04-20 19:55 11.60397 72.47681 33863 ft 444 kts 298°
2026-04-20 19:56 11.63956 72.42564 33865 ft 444 kts 298°
2026-04-20 19:56 11.67548 72.37395 33863 ft 445 kts 298°
2026-04-20 19:57 11.71117 72.32256 33866 ft 444 kts 298°
2026-04-20 19:57 11.74701 72.27097 33864 ft 443 kts 298°
2026-04-20 19:58 11.78275 72.21944 33864 ft 444 kts 298°
2026-04-20 19:58 11.81822 72.16830 33862 ft 443 kts 298°
2026-04-20 19:59 11.85392 72.11679 33866 ft 443 kts 298°
2026-04-20 19:59 11.88968 72.06517 33864 ft 443 kts 298°
2026-04-20 20:00 11.92519 72.01389 33865 ft 443 kts 298°
2026-04-20 20:00 11.96130 71.96276 33863 ft 443 kts 300°
2026-04-20 20:01 11.99806 71.91232 33864 ft 444 kts 300°
2026-04-20 20:01 12.03488 71.86179 33865 ft 443 kts 300°
2026-04-20 20:02 12.07143 71.81145 33866 ft 443 kts 300°
2026-04-20 20:02 12.10813 71.76085 33863 ft 442 kts 300°
2026-04-20 20:03 12.14476 71.71027 33864 ft 443 kts 300°
2026-04-20 20:03 12.18130 71.65976 33863 ft 442 kts 300°
2026-04-20 20:04 12.21786 71.60920 33864 ft 442 kts 300°
2026-04-20 20:04 12.25456 71.55842 33863 ft 442 kts 300°
2026-04-20 20:05 12.29112 71.50781 33864 ft 443 kts 300°
2026-04-20 20:05 12.32771 71.45711 33862 ft 441 kts 300°
2026-04-20 20:06 12.36436 71.40632 33865 ft 443 kts 300°
2026-04-20 20:06 12.40102 71.35548 33862 ft 442 kts 300°
2026-04-20 20:07 12.43745 71.30495 33863 ft 443 kts 300°
2026-04-20 20:07 12.47402 71.25419 33863 ft 442 kts 300°
2026-04-20 20:08 12.51077 71.20319 33863 ft 442 kts 300°
2026-04-20 20:08 12.54720 71.15268 33864 ft 442 kts 300°
2026-04-20 20:09 12.58369 71.10203 33864 ft 442 kts 300°
2026-04-20 20:09 12.62038 71.05109 33864 ft 441 kts 300°
2026-04-20 20:10 12.65691 71.00033 33868 ft 442 kts 300°
2026-04-20 20:10 12.69338 70.94961 33865 ft 442 kts 300°
2026-04-20 20:11 12.72969 70.89911 33866 ft 441 kts 300°
2026-04-20 20:11 12.76619 70.84828 33863 ft 442 kts 300°
2026-04-20 20:12 12.80268 70.79748 33872 ft 442 kts 300°
2026-04-20 20:12 12.83920 70.74659 33868 ft 441 kts 300°
2026-04-20 20:13 12.89390 70.67033 33865 ft 442 kts 300°
2026-04-20 20:13 12.93024 70.61961 33864 ft 442 kts 300°
2026-04-20 20:14 12.96676 70.56863 33866 ft 442 kts 300°
2026-04-20 20:14 13.00320 70.51773 33868 ft 441 kts 300°
2026-04-20 20:15 13.03962 70.46685 33867 ft 442 kts 300°
2026-04-20 20:15 13.07584 70.41607 33867 ft 440 kts 300°
2026-04-20 20:16 13.11185 70.36533 33864 ft 439 kts 299°
2026-04-20 20:16 13.14784 70.31455 33869 ft 441 kts 300°
2026-04-20 20:17 13.18406 70.26350 33862 ft 439 kts 299°
2026-04-20 20:17 13.22002 70.21275 33867 ft 440 kts 299°
2026-04-20 20:18 13.25626 70.16161 33867 ft 439 kts 299°
2026-04-20 20:18 13.29229 70.11071 33864 ft 439 kts 299°
2026-04-20 20:19 13.32809 70.06014 33868 ft 438 kts 299°
2026-04-20 20:19 13.36403 70.00932 33865 ft 437 kts 299°
2026-04-20 20:20 13.39989 69.95858 33867 ft 436 kts 299°
2026-04-20 20:20 13.43581 69.90771 33869 ft 436 kts 299°
2026-04-20 20:21 13.47147 69.85722 33869 ft 436 kts 299°
2026-04-20 20:21 13.50711 69.80668 33866 ft 436 kts 299°
2026-04-20 20:22 13.54308 69.75571 33871 ft 436 kts 299°
2026-04-20 20:22 13.57851 69.70547 33868 ft 435 kts 299°
2026-04-20 20:23 13.61406 69.65498 33871 ft 435 kts 299°
2026-04-20 20:23 13.64957 69.60455 33875 ft 434 kts 299°
2026-04-20 20:24 13.68494 69.55427 33874 ft 435 kts 299°
2026-04-20 20:24 13.72032 69.50396 33872 ft 434 kts 299°
2026-04-20 20:25 13.75607 69.45307 33876 ft 436 kts 299°
2026-04-20 20:25 13.79164 69.40243 33877 ft 433 kts 299°
2026-04-20 20:26 13.82696 69.35210 33879 ft 435 kts 299°
2026-04-20 20:26 13.86243 69.30153 33879 ft 433 kts 299°
2026-04-20 20:27 13.89805 69.25074 33878 ft 434 kts 299°
2026-04-20 20:27 13.93338 69.20031 33880 ft 434 kts 299°
2026-04-20 20:28 13.96858 69.15005 33883 ft 433 kts 299°
2026-04-20 20:28 14.00402 69.09940 33887 ft 434 kts 299°
2026-04-20 20:29 14.03935 69.04889 33887 ft 432 kts 299°
2026-04-20 20:29 14.07467 68.99837 33885 ft 433 kts 299°
2026-04-20 20:30 14.11002 68.94800 33885 ft 434 kts 299°
2026-04-20 20:30 14.14552 68.89784 33887 ft 432 kts 299°
2026-04-20 20:31 14.18112 68.84744 33888 ft 435 kts 299°
2026-04-20 20:31 14.21666 68.79710 33886 ft 433 kts 299°
2026-04-20 20:32 14.25217 68.74676 33883 ft 433 kts 299°
2026-04-20 20:32 14.28758 68.69651 33886 ft 434 kts 299°
2026-04-20 20:33 14.32313 68.64606 33887 ft 434 kts 300°
2026-04-20 20:33 14.35868 68.59556 33886 ft 433 kts 300°
2026-04-20 20:34 14.39430 68.54490 33889 ft 434 kts 300°
2026-04-20 20:34 14.42986 68.49433 33890 ft 434 kts 300°
2026-04-20 20:35 14.46563 68.44340 33890 ft 434 kts 299°
2026-04-20 20:35 14.50108 68.39291 33896 ft 434 kts 300°
2026-04-20 20:36 14.53641 68.34256 33891 ft 434 kts 299°
2026-04-20 20:36 14.57199 68.29183 33891 ft 435 kts 299°
2026-04-20 20:37 14.60771 68.24088 33896 ft 434 kts 299°
2026-04-20 20:37 14.64315 68.19027 33892 ft 434 kts 299°
2026-04-20 20:38 14.67864 68.13955 33899 ft 435 kts 300°
2026-04-20 20:38 14.71412 68.08884 33900 ft 434 kts 299°
2026-04-20 20:39 14.74942 68.03834 33899 ft 434 kts 300°
2026-04-20 20:39 14.78493 67.98751 33900 ft 434 kts 300°
2026-04-20 20:40 14.82049 67.93658 33897 ft 434 kts 300°
2026-04-20 20:40 14.85602 67.88568 33900 ft 434 kts 300°
2026-04-20 20:41 14.89121 67.83521 33903 ft 434 kts 300°
2026-04-20 20:41 14.92659 67.78442 33903 ft 434 kts 300°
2026-04-20 20:42 14.96188 67.73376 33905 ft 433 kts 300°
2026-04-20 20:42 14.99718 67.68303 33903 ft 433 kts 300°
2026-04-20 20:43 15.03225 67.63258 33900 ft 434 kts 301°
2026-04-20 20:43 15.06748 67.58191 33901 ft 432 kts 301°
2026-04-20 20:44 15.10273 67.53116 33902 ft 432 kts 301°
2026-04-20 20:44 15.13773 67.48072 33902 ft 432 kts 301°
2026-04-20 20:45 15.17281 67.43014 33898 ft 431 kts 301°
2026-04-20 20:45 15.20768 67.37985 33901 ft 431 kts 301°
2026-04-20 20:46 15.24265 67.32937 33897 ft 431 kts 301°
2026-04-20 20:46 15.27756 67.27893 33901 ft 431 kts 302°
2026-04-20 20:47 15.31250 67.22843 33897 ft 430 kts 302°
2026-04-20 20:47 15.34731 67.17808 33895 ft 430 kts 302°
2026-04-20 20:48 15.38202 67.12785 33896 ft 430 kts 302°
2026-04-20 20:48 15.41693 67.07729 33899 ft 430 kts 302°
2026-04-20 20:49 15.45180 67.02676 33897 ft 430 kts 303°
2026-04-20 20:49 15.48654 66.97639 33897 ft 429 kts 303°
2026-04-20 20:50 15.52144 66.92574 33893 ft 429 kts 303°
2026-04-20 20:50 15.55624 66.87521 33896 ft 429 kts 303°
2026-04-20 20:51 15.59105 66.82467 33895 ft 428 kts 304°
2026-04-20 20:51 15.62620 66.77441 33898 ft 429 kts 304°
2026-04-20 20:52 15.66129 66.72443 33900 ft 428 kts 304°
2026-04-20 20:52 15.69657 66.67406 33894 ft 427 kts 304°
2026-04-20 20:53 15.73146 66.62419 33900 ft 429 kts 304°
2026-04-20 20:53 15.76659 66.57392 33892 ft 427 kts 304°
2026-04-20 20:54 15.80143 66.52403 33895 ft 427 kts 305°
2026-04-20 20:54 15.83642 66.47390 33909 ft 428 kts 305°
2026-04-20 20:55 15.87145 66.42367 33906 ft 427 kts 306°
2026-04-20 20:55 15.90636 66.37357 33899 ft 427 kts 306°
2026-04-20 20:56 15.94136 66.32333 33903 ft 428 kts 306°
2026-04-20 20:56 15.97605 66.27348 33898 ft 427 kts 306°
2026-04-20 20:57 16.01111 66.22308 33904 ft 429 kts 306°
2026-04-20 20:57 16.04629 66.17245 33907 ft 428 kts 306°
2026-04-20 20:58 16.08091 66.12261 33906 ft 428 kts 306°
2026-04-20 20:58 16.11587 66.07224 33906 ft 427 kts 306°
2026-04-20 20:59 16.15077 66.02191 33906 ft 428 kts 306°
2026-04-20 20:59 16.18567 65.97156 33904 ft 427 kts 306°
2026-04-20 21:00 16.22047 65.92133 33905 ft 428 kts 306°
2026-04-20 21:00 16.25539 65.87087 33905 ft 428 kts 306°
2026-04-20 21:01 16.28999 65.82084 33904 ft 427 kts 306°
2026-04-20 21:01 16.32497 65.77024 33906 ft 427 kts 306°
2026-04-20 21:02 16.35996 65.71957 33904 ft 428 kts 306°
2026-04-20 21:02 16.39463 65.66934 33903 ft 427 kts 306°
2026-04-20 21:03 16.42941 65.61892 33907 ft 427 kts 306°
2026-04-20 21:03 16.46415 65.56851 33906 ft 427 kts 306°
2026-04-20 21:04 16.49875 65.51829 33909 ft 426 kts 306°
2026-04-20 21:04 16.53344 65.46788 33903 ft 426 kts 306°
2026-04-20 21:05 16.56809 65.41750 33908 ft 426 kts 306°
2026-04-20 21:05 16.60266 65.36719 33907 ft 426 kts 306°
2026-04-20 21:06 16.63723 65.31687 33907 ft 426 kts 306°
2026-04-20 21:06 16.67166 65.26672 33908 ft 425 kts 306°
2026-04-20 21:07 16.70619 65.21636 33905 ft 426 kts 306°
2026-04-20 21:07 16.74078 65.16590 33907 ft 425 kts 306°
2026-04-20 21:08 16.77527 65.11553 33912 ft 425 kts 306°
2026-04-20 21:08 16.80958 65.06541 33904 ft 425 kts 306°
2026-04-20 21:09 16.84413 65.01489 33907 ft 424 kts 306°
2026-04-20 21:09 16.87842 64.96471 33901 ft 423 kts 306°
2026-04-20 21:10 16.91287 64.91426 33908 ft 425 kts 306°
2026-04-20 21:10 16.94712 64.86407 33903 ft 424 kts 306°
2026-04-20 21:11 16.98161 64.81349 33904 ft 424 kts 306°
2026-04-20 21:11 17.01582 64.76330 33905 ft 425 kts 306°
2026-04-20 21:12 17.05006 64.71300 33901 ft 423 kts 306°
2026-04-20 21:12 17.08451 64.66238 33902 ft 424 kts 306°
2026-04-20 21:13 17.11882 64.61193 33904 ft 425 kts 306°
2026-04-20 21:13 17.15287 64.56181 33902 ft 425 kts 306°
2026-04-20 21:14 17.18724 64.51118 33903 ft 425 kts 306°
2026-04-20 21:14 17.22157 64.46059 33902 ft 425 kts 306°
2026-04-20 21:15 17.25578 64.41013 33903 ft 425 kts 306°
2026-04-20 21:15 17.29009 64.35955 33904 ft 424 kts 307°
2026-04-20 21:16 17.32508 64.30976 33903 ft 425 kts 307°
2026-04-20 21:16 17.36017 64.26026 33904 ft 424 kts 307°
2026-04-20 21:17 17.39545 64.21034 33904 ft 424 kts 307°
2026-04-20 21:17 17.43049 64.16066 33903 ft 425 kts 308°
2026-04-20 21:18 17.46568 64.11067 33904 ft 424 kts 308°
2026-04-20 21:18 17.50063 64.06099 33903 ft 425 kts 308°
2026-04-20 21:19 17.53561 64.01122 33904 ft 424 kts 308°
2026-04-20 21:20 17.58816 63.93636 33904 ft 422 kts 308°
2026-04-20 21:20 17.62314 63.88650 33904 ft 424 kts 308°
2026-04-20 21:21 17.65809 63.83663 33904 ft 424 kts 308°
2026-04-20 21:21 17.69291 63.78690 33905 ft 424 kts 308°
2026-04-20 21:22 17.72781 63.73706 33905 ft 424 kts 308°
2026-04-20 21:22 17.76286 63.68692 33905 ft 423 kts 308°
2026-04-20 21:23 17.79767 63.63712 33905 ft 424 kts 308°
2026-04-20 21:23 17.83285 63.58675 33904 ft 423 kts 308°
2026-04-20 21:24 17.86778 63.53670 33905 ft 424 kts 309°
2026-04-20 21:24 17.90265 63.48668 33905 ft 424 kts 308°
2026-04-20 21:25 17.93744 63.43673 33906 ft 424 kts 309°
2026-04-20 21:25 17.97226 63.38672 33905 ft 425 kts 309°
2026-04-20 21:26 18.00732 63.33635 33905 ft 424 kts 308°
2026-04-20 21:26 18.04236 63.28594 33905 ft 425 kts 309°
2026-04-20 21:27 18.07740 63.23550 33905 ft 425 kts 309°
2026-04-20 21:27 18.11227 63.18526 33904 ft 425 kts 309°
2026-04-20 21:28 18.14711 63.13501 33905 ft 425 kts 308°
2026-04-20 21:28 18.18210 63.08452 33905 ft 425 kts 309°
2026-04-20 21:29 18.21723 63.03379 33905 ft 426 kts 308°
2026-04-20 21:29 18.25217 62.98329 33904 ft 424 kts 308°
2026-04-20 21:30 18.28697 62.93295 33893 ft 424 kts 308°
2026-04-20 21:30 18.32188 62.88241 33904 ft 424 kts 308°
2026-04-20 21:31 18.35647 62.83229 33904 ft 423 kts 308°
2026-04-20 21:31 18.36241 62.82368 33900 ft 424 kts 308°